Mahmut Ozcan

Scout - Kayserispor
19 Aug 2027
Donnerstag
Verarbeitung

Persönlichkeit

Anpassungsfähigkeit (11) Ehrgeiz (2) Kontroverse (19) Loyalität (7) Druck (2) Professionalität (1) Fairness (1) Temperament (4)

Profil

Trainerstil Demokratisch
Lizenz Kontinentale A
Entschlossenheit 5
Menschenführung 4
Motivation 7
Disziplin 10
Arbeitszufriedenheit
100%
Ermüdung
0%
Rolle Scout
Gehalt 75.3K p/W
Vertrag 14.03.2028

Leistung

Verhalten Gut
Trainingseffektivität
39%
Spielerentwicklung
35%
Verletzungsprävention
20%
Taktische Umsetzung
25%

Letzte Ereignisse

Nahm an einer Scouting-Besprechung teil jetzt
Nahm an einer Scouting-Besprechung teil jetzt
Nahm an einer Scouting-Besprechung teil jetzt
Nahm an einer Scouting-Besprechung teil 7T her
Nahm an einer Scouting-Besprechung teil 7T her
Nahm an einer Scouting-Besprechung teil 7T her
Nahm an einer Scouting-Besprechung teil 7T her
Nahm an einer Scouting-Besprechung teil 14T her

Aktuell beobachtet

51
Spieler Verein Status Fähigkeit Vertrauen Beobachtet Zuletzt beobachtet Letzte Stimme
Özgür Aktaş Ankaragucu Verloren 108 / 115 69% 1 16.08.2027 -
Muhlis Dağaşan Istanbulspor Verloren 97 / 112 69% 1 01.06.2027 -
Nikola Storm Antalyaspor Aktiv 115 / 128 69% 1 18.01.2027 -
Tom Fellows Southampton Aktiv 128 / 124 40% 1 01.01.2027 -
Wilson Isidor Sunderland Aktiv 135 / 148 40% 3 30.12.2026 -
Morgan Whittaker Middlesbrough Aktiv 142 / 126 40% 1 30.12.2026 -
Shahriar Dejagah Tractor Aktiv 135 / 122 40% 2 29.12.2026 Mehr Infos nötig
Mohamed-Ali Cho Hull City Aktiv 120 / 133 40% 2 29.12.2026 -
Aune Heggebø West Bromwich Albion Aktiv 124 / 146 40% 2 29.12.2026 -
Mandla Mahlangu Ajax Cape Town Aktiv 105 / 101 40% 3 28.12.2026 -
Ahmed Kutucu Konyaspor Aktiv 127 / 130 40% 4 23.12.2026 -
Luis Vázquez Birmingham Aktiv 138 / 142 40% 2 23.12.2026 -
Jens Odgaard Bologna Aktiv 137 / 134 40% 1 23.12.2026 -
Lorent Tolaj Plymouth Argyle Aktiv 120 / 121 40% 1 20.12.2026 -
Marezi Portsmouth Aktiv 113 / 135 40% 3 19.12.2026 -
Aral Şimşir Trabzonspor Aktiv 133 / 123 40% 2 19.12.2026 -
Themba Ngcobo SuperSport United Aktiv 109 / 113 40% 3 18.12.2026 -
Razvan Balasa Crvena Zvezda Aktiv 153 / 139 40% 4 18.12.2026 -
Dom Ballard Leyton Orient Aktiv 112 / 133 40% 2 12.12.2026 -
Robert Mizo Ashanti Gold Aktiv 108 / 96 40% 1 10.12.2026 -
Ilyas Ansah Hull City Aktiv 137 / 115 40% 1 10.12.2026 -
Nicolás Cordero Aldosivi Aktiv 125 / 123 40% 1 09.12.2026 -
Tyrese Campbell Sheffield United Aktiv 136 / 143 40% 2 06.12.2026 -
Mees Rijks Bristol Rovers Aktiv 108 / 127 40% 1 06.12.2026 -
Álvaro Rodríguez Bournemouth Aktiv 131 / 145 40% 1 05.12.2026 -
Giacomo Raspadori Atalanta Aktiv 153 / 132 40% 2 01.12.2026 -
Joshua Zirkzee Manchester United Aktiv 154 / 161 40% 1 01.12.2026 -
Tommy Conway Middlesbrough Aktiv 133 / 142 40% 2 27.11.2026 -
Mattia Felici Cagliari Aktiv 136 / 112 40% 1 26.11.2026 -
Rafael Navarro St. Louis CITY SC Aktiv 115 / 142 40% 1 24.11.2026 -
George Hirst Stoke City Aktiv 132 / 134 40% 1 24.11.2026 -
Agustín Módica Gimnasia y Esgrima Aktiv 126 / 120 40% 1 23.11.2026 -
Ramiro Ruiz Rodríguez Atlético Tucumán Aktiv 123 / 121 40% 2 21.11.2026 -
Tomás González Piast Aktiv 106 / 132 40% 1 21.11.2026 -
David Miculescu FCSB Aktiv 133 / 104 40% 1 20.11.2026 -
Manfred Ugalde Spartak Moscow Aktiv 122 / 136 40% 1 14.11.2026 -
Everton Bala Levski Aktiv 129 / 108 40% 2 13.11.2026 -
Victor Gidado Gaziantep Aktiv 112 / 115 30% 1 / 1m 11.11.2026 -
Ruben van Bommel Ferencvaros Aktiv 125 / 137 40% 1 11.11.2026 -
Dejan Joveljić Seattle Sounders Aktiv 135 / 129 40% 1 11.11.2026 -
Enzo Avaro Odd Aktiv 125 / 90 40% 1 27.10.2026 -
Ibrahim Aliyu Houston Dynamo Aktiv 119 / 133 40% 1 23.10.2026 -
Bamba Dieng Crvena Zvezda Aktiv 120 / 138 40% 2 22.10.2026 -
Kévin Denkey FC Cincinnati Aktiv 131 / 145 40% 1 22.10.2026 -
Josh Sargent Toronto FC Aktiv 123 / 143 40% 1 22.10.2026 -
Evidence Makgopa Orlando Pirates Aktiv 112 / 113 40% 2 17.10.2026 -
Diego García Malmo FF Aktiv 126 / 131 40% 1 17.10.2026 -
Etiosa Ighodaro Kaizer Chiefs Aktiv 118 / 121 40% 1 17.10.2026 -
Fiete Arp OB Aktiv 119 / 111 40% 1 15.10.2026 -
Sead Hakšabanović Malmo FF Aktiv 121 / 126 40% 1 07.10.2026 Mehr Infos nötig
Louis Munteanu DC United Aktiv 121 / 107 40% 1 07.10.2026 -